Lapse_Rate
5.5 5.7 5.8 5.2 5.4 5.1 4.9 5.1 5.4 5.6 6.1 6.8 5.9 5.5 5.5 5.9 5.8 6.0 6.1 6.3 6.0 5.8 5.5 6.2 6.4 6.4 6.7 6.6 6.9 6.7 6.8 6.8 6.5 6.3 6.1 6.2 6.5 6.5 6.3 6.1 6.0 6.0 6.0 6.2
6.2 5.9 5.1 5.1 5.3 5.3 5.2 5.2 5.5 5.7 6.6 6.1 5.9 6.4 6.1 6.5 6.1 6.0 6.1 6.5 5.9 5.7 5.8 6.1 6.2 6.3 6.2 6.7 6.7 6.6 6.6 6.7 6.6 6.6 6.4 6.3 6.5 6.5 6.4 6.3 6.1 6.0 5.9 5.9
6.4 6.0 5.9 5.7 6.1 5.5 5.3 5.5 6.0 6.0 6.1 6.6 5.9 6.7 6.9 6.9 7.0 6.1 6.3 6.3 6.0 5.5 5.6 5.9 5.9 6.3 6.3 6.2 6.6 6.7 6.6 6.5 6.5 6.6 6.4 6.2 6.1 6.2 6.2 6.2 6.2 6.1 6.0 5.9
6.2 6.2 6.2 5.9 5.9 5.0 4.8 5.5 5.7 5.8 5.7 6.1 7.0 6.8 6.8 7.1 6.6 6.1 6.3 6.3 6.3 5.9 5.7 5.8 5.8 6.1 6.2 6.3 6.3 6.2 6.6 6.5 6.6 6.4 6.4 6.4 6.6 6.7 6.7 6.6 6.4 6.1 6.0 5.9
6.1 6.2 6.1 6.1 5.7 5.5 5.1 5.8 5.6 5.4 5.1 5.7 6.6 7.2 7.4 7.4 6.5 6.2 6.4 6.1 6.3 6.2 6.0 6.0 5.7 5.9 6.1 6.2 5.9 6.3 6.1 6.5 6.6 6.6 6.5 6.5 6.5 6.5 6.5 6.4 6.4 6.1 5.9 5.9
6.4 6.1 6.1 5.8 6.1 5.9 5.6 5.8 5.8 5.7 5.7 5.7 5.9 6.0 7.7 6.7 5.8 6.5 6.5 6.3 6.3 6.2 6.2 5.8 6.0 6.0 6.0 6.3 6.5 6.1 6.4 6.1 6.5 6.6 6.5 6.4 6.4 6.5 6.4 6.3 6.3 6.0 6.0 5.9
6.7 6.4 6.0 5.9 6.3 6.1 5.7 5.8 5.1 5.6 5.9 5.8 6.8 6.6 3.6 5.1 5.4 5.3 6.4 6.4 5.9 6.0 5.8 5.7 6.3 6.0 6.1 6.1 5.9 6.2 6.2 6.0 6.4 6.6 6.7 6.6 6.8 6.7 6.4 6.5 6.5 6.3 6.1 6.0
6.0 6.0 6.0 5.8 5.2 4.7 5.0 4.7 4.9 5.4 6.4 6.2 7.3 4.2 2.8 3.9 4.7 4.5 4.8 5.4 5.5 5.9 6.0 5.4 6.0 6.3 6.6 6.3 6.2 6.1 6.2 6.2 6.4 6.4 6.6 6.5 6.2 6.5 6.6 6.5 6.2 6.2 6.1 6.2
5.8 6.2 6.2 5.8 5.8 5.5 5.6 4.5 4.4 3.9 5.6 5.3 4.4 3.3 3.1 3.0 4.0 4.3 4.0 4.4 5.1 5.8 5.9 5.9 6.1 6.2 6.2 6.6 6.7 6.4 6.3 6.3 6.1 6.3 6.2 6.3 5.8 6.2 6.9 6.7 6.2 6.2 6.1 6.0
6.2 6.4 6.7 6.5 6.5 6.3 5.2 4.7 4.6 4.8 6.0 6.5 4.2 2.9 2.1 2.2 3.2 3.7 4.2 4.3 4.7 5.4 5.9 6.1 6.1 6.3 6.0 5.7 5.5 6.2 6.5 6.4 6.2 6.3 6.2 5.8 5.8 6.7 6.7 6.5 6.2 6.1 6.1 6.0
6.5 6.6 6.9 6.9 6.6 6.3 5.9 5.0 4.4 4.0 4.7 5.4 5.1 2.9 2.1 2.0 2.4 2.9 3.5 3.8 4.2 4.9 5.3 5.7 5.9 6.2 6.2 6.2 5.9 5.9 6.7 6.5 6.1 5.8 6.2 5.6 5.8 6.4 6.4 6.4 6.2 6.3 6.2 6.0
6.4 6.4 6.6 6.7 6.7 6.6 6.1 5.6 4.9 4.5 4.5 4.2 4.2 2.4 2.1 2.0 2.3 2.3 2.8 2.6 3.3 4.1 4.9 5.5 5.6 6.0 6.3 6.2 5.9 5.9 6.7 6.7 6.0 6.4 5.7 5.5 6.5 6.2 6.2 6.1 6.0 6.2 6.2 6.3
6.3 6.7 6.8 6.8 6.8 6.8 6.4 5.8 5.4 5.1 4.6 4.8 5.0 2.7 2.1 2.0 2.2 2.1 2.4 2.5 2.5 3.4 4.0 5.0 5.0 5.8 5.6 6.0 5.9 6.2 5.6 6.1 6.1 5.1 5.7 5.7 6.5 6.5 6.3 6.1 6.0 6.0 6.0 6.1
6.6 6.7 6.8 6.5 6.5 6.5 6.3 6.0 5.6 5.3 5.1 4.3 3.3 2.3 2.4 2.0 1.9 2.1 2.4 2.3 2.5 2.7 3.1 3.8 4.5 4.9 5.5 5.8 5.9 5.5 5.6 6.1 6.1 6.2 6.6 6.5 6.4 6.3 6.2 6.3 6.0 5.8 5.7 5.9
6.3 6.7 6.9 6.7 6.7 6.6 6.6 6.0 5.6 5.1 4.6 4.5 3.3 3.1 2.6 2.6 2.2 2.0 2.3 2.5 2.6 2.7 2.6 2.8 3.6 4.3 5.2 5.1 5.9 5.5 5.7 6.0 6.2 6.4 6.4 6.4 6.1 6.2 6.3 5.9 6.0 5.5 5.5 5.4
6.2 6.3 6.7 6.8 7.0 6.8 6.8 6.1 5.8 5.3 4.9 4.3 3.7 3.3 2.8 2.6 2.4 2.4 2.0 2.3 2.6 2.8 2.5 2.6 2.7 3.2 3.9 4.6 5.2 5.3 5.1 4.9 6.2 6.3 6.1 6.0 5.7 5.2 5.7 5.6 5.9 5.7 5.6 5.4
5.8 6.0 6.5 7.2 6.8 7.0 7.0 6.5 5.9 5.3 5.0 4.7 4.4 3.6 3.2 3.1 2.9 2.8 2.6 2.2 2.5 2.9 2.7 2.6 2.5 2.8 3.3 3.8 3.9 4.2 4.4 5.1 4.6 5.3 5.7 5.8 5.8 5.7 5.8 5.8 5.6 5.8 5.6 5.6
5.4 6.0 6.5 6.9 6.9 6.8 6.3 6.3 6.0 5.7 5.4 4.8 4.3 4.0 3.6 3.4 3.3 2.9 2.8 2.6 2.3 2.6 2.9 2.7 2.7 2.6 3.0 3.0 3.6 3.9 3.9 4.1 3.8 4.4 5.4 5.8 6.0 5.9 6.1 5.3 5.5 5.5 5.5 5.7
5.3 5.5 6.0 6.5 7.0 6.3 6.1 6.3 6.0 5.7 5.4 5.3 4.8 4.2 3.8 3.6 3.4 3.4 2.7 2.8 2.9 2.6 2.5 2.8 2.8 2.9 2.7 3.0 3.4 2.8 3.6 4.3 4.1 3.8 4.3 4.8 5.5 5.5 6.2 5.9 5.7 5.9 5.8 6.1
5.0 5.3 5.8 6.5 6.8 6.9 6.3 6.2 6.1 5.9 5.5 5.4 5.2 4.8 4.0 3.6 3.5 3.6 3.1 2.8 2.8 2.9 2.4 2.4 2.6 2.9 3.0 2.9 3.0 3.0 3.4 3.6 3.6 3.6 4.0 4.7 4.4 5.1 5.1 5.7 5.9 5.8 6.2 6.2
4.7 5.0 5.6 6.2 6.3 6.2 6.2 5.9 6.1 5.8 5.8 5.6 5.4 5.2 4.7 4.0 3.7 3.6 3.3 3.2 3.0 2.9 3.0 2.6 2.3 2.7 2.8 3.0 3.0 2.9 3.2 3.2 3.7 3.8 3.9 4.0 4.1 4.6 5.2 5.4 5.5 6.0 6.2 6.0
4.4 4.5 5.0 5.3 5.8 5.8 5.8 5.9 5.8 5.9 5.8 5.8 5.6 5.4 5.2 4.6 4.0 3.8 3.7 3.6 3.2 3.1 3.1 2.8 2.7 2.5 2.6 2.8 2.9 3.2 2.9 3.1 3.3 3.4 3.9 3.9 4.1 4.5 4.5 4.8 4.9 5.3 5.2 5.4
4.7 4.9 4.8 5.1 5.4 5.6 5.6 5.7 5.7 5.8 5.7 5.7 5.7 5.7 5.5 5.2 4.7 4.2 3.9 3.8 4.0 3.5 2.9 3.0 2.8 3.2 2.8 2.8 2.8 2.9 3.0 3.1 3.4 3.7 3.5 3.2 3.5 4.1 4.1 4.6 4.8 4.8 5.2 5.5
4.8 4.7 4.8 4.9 5.2 5.2 5.4 5.4 5.6 5.5 5.6 5.6 5.6 5.6 5.6 5.4 5.1 4.6 4.2 3.9 3.8 3.9 3.8 3.2 2.8 2.9 3.1 2.7 2.8 3.0 3.0 2.8 2.9 3.3 3.5 3.8 4.0 4.0 3.9 4.0 4.2 4.4 4.9 5.1
5.2 4.8 5.0 5.1 5.2 5.3 5.2 5.3 5.4 5.4 5.4 5.6 5.5 5.4 5.4 5.4 5.3 5.0 4.7 4.2 3.9 3.9 3.7 3.5 3.7 3.2 3.1 3.1 2.9 2.7 2.8 2.9 2.9 2.9 2.9 3.0 3.4 3.6 3.8 3.8 4.0 4.3 4.4 4.5
5.6 5.3 5.2 5.3 5.1 5.2 5.1 5.0 5.2 5.3 5.3 5.4 5.5 5.5 5.3 5.3 5.2 5.2 4.8 4.5 4.3 4.1 3.8 3.5 3.5 3.6 3.5 3.6 3.4 3.4 3.2 2.9 3.0 3.1 3.0 2.9 2.8 3.1 3.3 3.4 3.8 4.0 4.0 4.3
Wind_Speed
11 4 7 9 10 10 12 10 11 13 15 21 25 22 20 24 9 19 12 11 8 9 4 7 3 11 18 17 18 17 17 18 14 12 10 10 10 9 7 10 15 16 18 18
8 11 12 13 12 12 9 13 13 14 17 16 24 19 20 24 6 2 3 11 5 7 7 8 8 8 10 17 18 20 17 17 14 12 11 10 9 7 9 12 14 16 17 18
8 15 16 16 12 16 11 9 11 14 15 15 13 21 19 14 14 12 13 12 15 13 9 11 12 11 8 5 15 18 17 19 15 15 10 7 6 4 4 8 8 10 16 17
5 15 14 14 15 16 11 13 17 14 7 4 6 9 24 18 11 11 11 12 12 14 12 13 14 11 10 10 7 9 17 16 16 15 13 16 12 12 9 7 6 7 16 15
12 11 13 13 14 15 6 18 16 14 8 7 13 6 16 16 12 10 10 12 12 12 12 14 14 12 12 10 9 7 8 15 14 16 14 13 14 10 7 6 11 10 10 15
14 10 10 6 18 7 13 9 15 8 4 4 12 5 11 5 8 6 10 11 14 12 13 14 14 13 12 13 11 10 8 5 9 16 16 17 16 14 11 10 9 8 8 7
13 12 5 14 11 11 20 7 3 1 5 5 3 10 7 13 16 16 12 12 13 12 13 14 15 15 13 15 14 10 10 9 9 17 15 17 17 17 17 14 10 11 8 8
8 6 6 9 5 7 12 5 4 4 3 8 4 5 6 12 13 13 14 12 13 14 13 15 14 14 13 14 13 13 12 11 11 8 11 17 19 12 12 12 10 9 9 9
5 5 6 6 3 12 9 6 3 5 5 2 6 3 7 12 14 14 15 15 14 14 12 13 14 14 13 15 16 15 14 13 13 13 8 7 14 12 14 14 11 10 10 8
5 5 3 4 4 8 4 2 4 2 4 1 5 4 6 14 14 13 15 14 13 14 14 13 12 13 12 13 12 17 15 14 14 14 9 8 9 9 10 9 12 13 11 10
12 2 8 6 5 3 6 5 4 4 3 3 2 4 7 11 13 11 12 11 11 12 12 11 11 12 12 14 15 15 15 15 15 13 11 12 10 7 11 11 8 6 8 8
8 3 4 3 3 3 4 3 4 2 6 5 3 3 6 9 11 12 12 12 11 10 11 11 11 12 14 12 14 13 15 14 12 12 11 14 10 11 12 11 9 9 7 5
9 4 5 0 1 1 4 5 3 6 4 2 2 3 9 14 13 13 11 11 9 12 12 11 11 11 10 12 11 13 11 14 15 13 11 12 14 13 11 10 8 9 6 5
10 3 4 2 3 4 4 9 8 7 3 6 4 4 9 11 10 11 12 10 11 11 12 11 11 11 12 10 10 12 11 12 9 13 12 12 11 11 8 8 8 8 6 6
4 3 6 5 6 8 5 6 7 7 7 4 2 3 5 5 6 9 10 11 12 13 14 13 12 10 11 10 12 11 11 11 13 11 11 12 9 9 8 9 9 9 7 6
8 3 12 11 9 8 8 7 7 4 5 2 2 2 3 1 2 6 10 11 11 12 13 13 12 12 11 12 11 9 10 9 12 11 11 10 10 8 8 10 9 10 8 7
5 5 6 3 4 9 3 3 5 2 2 2 3 2 4 4 5 5 5 8 9 10 11 11 11 11 10 10 9 8 8 11 9 10 10 11 12 11 11 9 10 11 8 7
5 5 4 4 8 2 2 4 3 4 3 3 2 3 2 4 3 2 3 5 5 7 8 9 8 9 9 8 10 8 7 7 6 9 11 10 10 11 11 10 9 10 7 8
4 1 3 1 5 3 3 4 3 2 0 3 3 5 4 6 4 2 4 3 4 4 3 3 6 8 7 9 9 6 8 9 11 9 9 9 9 7 8 9 9 7 7 5
8 4 3 4 3 3 1 3 2 2 2 4 3 5 6 8 2 2 5 5 4 6 6 6 6 5 6 7 8 7 8 9 9 9 9 10 8 9 7 7 7 6 6 6
4 4 3 5 3 2 2 2 1 1 0 4 2 3 4 2 1 4 5 5 5 4 5 5 6 5 5 5 7 7 8 8 9 9 8 7 8 7 9 7 5 7 7 8
2 1 3 4 3 2 1 1 4 4 4 3 2 2 2 4 5 5 5 4 5 5 5 5 5 5 4 5 5 6 7 7 8 8 7 8 8 7 7 7 7 6 6 5
2 6 3 5 4 4 4 7 3 4 4 3 1 3 3 4 5 5 4 4 4 4 4 5 5 6 5 5 4 5 5 6 7 8 8 7 8 6 7 7 7 6 5 5
2 3 3 4 5 5 4 3 4 6 6 2 1 2 3 4 5 4 5 4 3 4 4 2 4 5 4 5 6 5 6 6 6 6 7 6 6 7 7 5 5 5 5 5
4 5 5 5 8 5 4 6 6 6 4 4 2 4 5 3 5 3 3 3 3 3 3 3 3 4 5 5 4 5 5 5 5 5 5 6 5 5 5 6 4 2 3 4
5 7 5 5 7 6 6 4 4 6 7 7 6 4 6 5 7 3 5 4 3 4 3 4 4 4 4 4 5 6 5 5 5 5 5 5 3 4 5 5 5 10 9 7
Wind_Direction
323 306 24 345 313 302 305 293 277 292 298 208 231 230 208 239 236 207 209 233 194 95 73 51 359 201 183 180 161 158 162 157 150 150 158 161 160 154 148 148 150 138 147 155
342 53 356 329 318 334 313 304 288 284 261 267 229 224 234 213 221 92 70 27 78 113 78 46 39 5 204 178 166 172 165 160 162 156 166 168 157 149 151 147 153 155 151 151
318 5 357 347 342 6 345 308 305 285 315 304 263 224 225 208 107 83 63 53 32 31 47 44 37 17 10 51 181 173 163 164 162 164 158 154 132 110 127 148 157 157 155 156
349 357 355 2 357 352 327 336 325 322 2 256 350 214 212 201 122 80 68 56 35 21 29 37 35 14 359 15 340 189 169 165 169 159 165 164 166 163 166 160 143 151 160 153
336 22 10 360 335 315 294 315 295 288 290 303 275 246 193 142 136 108 75 66 43 27 25 33 33 13 359 17 355 4 161 165 172 162 165 168 166 167 160 157 154 159 149 149
332 26 53 335 322 39 344 320 307 260 219 248 242 279 172 141 11 85 71 54 51 27 23 28 26 22 3 15 12 21 40 23 179 166 175 174 167 169 166 165 162 160 149 145
334 43 36 12 343 344 359 341 308 306 212 234 208 197 45 37 27 43 50 42 47 32 26 28 21 18 357 9 4 21 20 31 352 179 181 176 173 167 168 170 170 163 157 158
344 341 24 335 74 313 301 336 1 289 180 206 348 25 33 46 43 41 42 37 37 34 24 28 18 18 9 7 6 11 20 24 2 339 196 179 169 161 166 170 176 171 172 168
311 309 333 56 63 23 323 27 316 274 218 272 105 30 86 46 39 33 33 31 29 30 27 25 15 19 10 12 8 9 3 22 4 339 340 149 153 146 157 162 169 180 178 167
296 285 287 52 45 3 28 324 18 289 307 294 95 50 2 19 28 29 29 27 23 25 25 25 18 17 18 13 355 23 3 11 10 348 324 44 75 91 112 121 160 169 172 166
338 14 302 354 36 296 1 22 349 285 262 303 95 100 10 29 34 32 39 33 29 27 26 23 20 22 12 22 18 19 15 354 10 350 348 28 46 67 78 84 77 74 113 135
341 285 299 90 194 231 66 30 10 326 354 323 22 11 27 52 38 44 37 31 30 37 29 27 18 24 20 18 24 18 19 358 358 354 10 26 29 46 65 70 65 60 59 72
338 334 327 91 274 314 48 40 7 293 216 286 293 114 7 21 31 31 32 31 28 33 31 27 27 25 17 22 30 31 10 8 358 349 10 28 18 36 42 53 60 66 65 55
354 297 318 322 259 239 347 20 20 349 358 328 33 68 23 20 15 15 21 23 24 31 30 27 25 24 24 16 21 31 22 14 344 13 10 28 22 19 24 43 52 63 58 70
15 286 313 223 228 261 294 25 50 29 349 41 8 60 15 23 15 12 10 16 22 24 27 23 21 18 26 10 19 20 17 9 11 13 14 20 9 35 9 31 47 56 49 32
335 292 315 287 264 238 278 41 36 45 343 14 167 115 315 257 58 31 11 7 15 18 16 19 17 15 14 17 12 3 27 359 14 5 25 18 11 6 19 37 33 49 46 26
330 330 317 310 304 302 149 26 354 120 69 292 16 246 326 325 7 28 5 357 7 8 9 9 8 9 5 11 5 2 2 27 17 2 19 15 12 2 12 30 38 37 24 35
327 326 288 294 312 230 167 82 303 315 142 17 340 348 332 330 340 89 16 350 5 5 4 360 359 359 7 1 15 10 7 30 15 9 15 14 13 13 13 21 22 45 352 39
143 280 323 331 306 114 156 33 15 38 335 84 333 346 350 330 275 89 20 355 355 7 8 359 348 336 1 12 4 352 25 32 32 359 3 7 3 9 13 21 18 4 359 27
339 139 142 305 301 312 108 60 38 321 251 66 360 341 350 324 1 99 356 338 17 3 5 356 352 358 6 2 346 0 34 23 27 9 358 18 347 3 20 6 355 2 355 359
326 335 236 293 306 109 70 46 288 28 250 351 17 338 347 342 200 303 328 346 3 0 356 6 347 6 12 12 341 359 27 13 6 359 356 348 353 354 21 4 335 4 4 10
188 99 306 343 293 270 89 264 150 216 310 300 315 338 311 327 321 311 333 359 357 2 353 2 351 350 355 26 3 3 11 355 352 336 357 8 356 3 2 348 354 1 9 359
339 183 197 159 241 188 189 200 215 161 197 276 113 320 349 304 301 328 330 352 348 357 6 354 342 335 351 21 28 14 344 347 345 347 354 358 347 14 1 359 4 351 5 19
225 117 188 56 275 241 222 252 175 182 206 236 166 214 280 270 297 311 329 334 336 344 329 345 347 341 349 2 6 360 359 346 345 344 340 350 352 14 350 7 6 358 7 21
203 120 196 246 281 314 260 205 211 218 192 211 216 199 231 276 274 270 280 281 292 307 318 330 309 313 323 341 341 346 350 352 349 341 342 351 4 358 350 358 339 336 10 4
182 196 164 219 206 172 240 234 179 175 211 218 202 248 239 206 250 261 269 258 263 275 285 297 302 308 304 326 321 321 330 346 339 336 359 338 3 344 4 347 338 359 359 350